Year,Month,Day,Hour,Minute,Value (Times are PST for temperature in C)
2014,07,13,00,00,24.30
2014,07,13,00,01,24.30
2014,07,13,00,02,24.30
2014,07,13,00,03,24.20
2014,07,13,00,04,24.20
2014,07,13,00,05,24.20
2014,07,13,00,06,24.20
2014,07,13,00,07,24.20
2014,07,13,00,08,24.10
2014,07,13,00,09,24.10
2014,07,13,00,10,24.00
2014,07,13,00,11,23.90
2014,07,13,00,12,23.80
2014,07,13,00,13,23.80
2014,07,13,00,14,23.60
2014,07,13,00,15,23.50
2014,07,13,00,16,23.40
2014,07,13,00,17,23.30
2014,07,13,00,18,23.30
2014,07,13,00,19,23.30
2014,07,13,00,20,23.30
2014,07,13,00,21,23.30
2014,07,13,00,22,23.30
2014,07,13,00,23,23.40
2014,07,13,00,24,23.40
2014,07,13,00,25,23.40
2014,07,13,00,26,23.40
2014,07,13,00,27,23.40
2014,07,13,00,28,23.30
2014,07,13,00,29,23.30
2014,07,13,00,30,23.30
2014,07,13,00,31,23.30
2014,07,13,00,32,23.20
2014,07,13,00,33,23.20
2014,07,13,00,34,23.10
2014,07,13,00,35,23.10
2014,07,13,00,36,23.10
2014,07,13,00,37,23.10
2014,07,13,00,38,23.10
2014,07,13,00,39,23.10
2014,07,13,00,40,23.20
2014,07,13,00,41,23.30
2014,07,13,00,42,23.20
2014,07,13,00,43,23.20
2014,07,13,00,44,23.20
2014,07,13,00,45,23.20
2014,07,13,00,46,23.20
2014,07,13,00,47,23.20
2014,07,13,00,48,23.10
2014,07,13,00,49,23.00
2014,07,13,00,50,22.90
2014,07,13,00,51,22.80
2014,07,13,00,52,22.70
2014,07,13,00,53,22.60
2014,07,13,00,54,22.60
2014,07,13,00,55,22.50
2014,07,13,00,56,22.40
2014,07,13,00,57,22.40
2014,07,13,00,58,22.40
2014,07,13,00,59,22.40
2014,07,13,01,00,22.40
2014,07,13,01,01,22.30
2014,07,13,01,02,22.30
2014,07,13,01,03,22.30
2014,07,13,01,04,22.30
2014,07,13,01,05,22.30
2014,07,13,01,06,22.30
2014,07,13,01,07,22.30
2014,07,13,01,08,22.20
2014,07,13,01,09,22.20
2014,07,13,01,10,22.20
2014,07,13,01,11,22.20
2014,07,13,01,12,22.20
2014,07,13,01,13,22.20
2014,07,13,01,14,22.20
2014,07,13,01,15,22.20
2014,07,13,01,16,22.30
2014,07,13,01,17,22.30
2014,07,13,01,18,22.30
2014,07,13,01,19,22.30
2014,07,13,01,20,22.30
2014,07,13,01,21,22.30
2014,07,13,01,22,22.20
2014,07,13,01,23,22.20
2014,07,13,01,24,22.10
2014,07,13,01,25,22.10
2014,07,13,01,26,22.10
2014,07,13,01,27,22.10
2014,07,13,01,28,22.10
2014,07,13,01,29,22.10
2014,07,13,01,30,22.20
2014,07,13,01,31,22.20
2014,07,13,01,32,22.20
2014,07,13,01,33,22.20
2014,07,13,01,34,22.20
2014,07,13,01,35,22.20
2014,07,13,01,36,22.20
2014,07,13,01,37,22.10
2014,07,13,01,38,22.10
2014,07,13,01,39,22.10
2014,07,13,01,40,22.10
2014,07,13,01,41,22.20
2014,07,13,01,42,22.20
2014,07,13,01,43,22.20
2014,07,13,01,44,22.20
2014,07,13,01,45,22.20
2014,07,13,01,46,22.20
2014,07,13,01,47,22.30
2014,07,13,01,48,22.30
2014,07,13,01,49,22.30
2014,07,13,01,50,22.40
2014,07,13,01,51,22.50
2014,07,13,01,52,22.50
2014,07,13,01,53,22.60
2014,07,13,01,54,22.70
2014,07,13,01,55,22.70
2014,07,13,01,56,22.80
2014,07,13,01,57,22.80
2014,07,13,01,58,22.80
2014,07,13,01,59,22.80
2014,07,13,02,00,22.90
2014,07,13,02,01,22.90
2014,07,13,02,02,22.90
2014,07,13,02,03,22.80
2014,07,13,02,04,22.80
2014,07,13,02,05,22.80
2014,07,13,02,06,22.80
2014,07,13,02,07,22.80
2014,07,13,02,08,22.80
2014,07,13,02,09,22.70
2014,07,13,02,10,22.70
2014,07,13,02,11,22.70
2014,07,13,02,12,22.60
2014,07,13,02,13,22.60
2014,07,13,02,14,22.50
2014,07,13,02,15,22.50
2014,07,13,02,16,22.40
2014,07,13,02,17,22.40
2014,07,13,02,18,22.30
2014,07,13,02,19,22.30
2014,07,13,02,20,22.30
2014,07,13,02,21,22.20
2014,07,13,02,22,22.20
2014,07,13,02,23,22.20
2014,07,13,02,24,22.20
2014,07,13,02,25,22.10
2014,07,13,02,26,22.10
2014,07,13,02,27,22.00
2014,07,13,02,28,22.00
2014,07,13,02,29,21.90
2014,07,13,02,30,21.90
2014,07,13,02,31,21.80
2014,07,13,02,32,21.80
2014,07,13,02,33,21.80
2014,07,13,02,34,21.70
2014,07,13,02,35,21.70
2014,07,13,02,36,21.60
2014,07,13,02,37,21.50
2014,07,13,02,38,21.50
2014,07,13,02,39,21.40
2014,07,13,02,40,21.30
2014,07,13,02,41,21.30
2014,07,13,02,42,21.20
2014,07,13,02,43,21.10
2014,07,13,02,44,21.10
2014,07,13,02,45,21.00
2014,07,13,02,46,21.00
2014,07,13,02,47,20.90
2014,07,13,02,48,20.90
2014,07,13,02,49,20.90
2014,07,13,02,50,20.80
2014,07,13,02,51,20.80
2014,07,13,02,52,20.80
2014,07,13,02,53,20.80
2014,07,13,02,54,20.80
2014,07,13,02,55,20.70
2014,07,13,02,56,20.70
2014,07,13,02,57,20.70
2014,07,13,02,58,20.60
2014,07,13,02,59,20.60
2014,07,13,03,00,20.60
2014,07,13,03,01,20.50
2014,07,13,03,02,20.50
2014,07,13,03,03,20.50
2014,07,13,03,04,20.40
2014,07,13,03,05,20.50
2014,07,13,03,06,20.50
2014,07,13,03,07,20.50
2014,07,13,03,08,20.60
2014,07,13,03,09,20.60
2014,07,13,03,10,20.60
2014,07,13,03,11,20.70
2014,07,13,03,12,20.70
2014,07,13,03,13,20.60
2014,07,13,03,14,20.60
2014,07,13,03,15,20.60
2014,07,13,03,16,20.60
2014,07,13,03,17,20.60
2014,07,13,03,18,20.60
2014,07,13,03,19,20.60
2014,07,13,03,20,20.60
2014,07,13,03,21,20.60
2014,07,13,03,22,20.60
2014,07,13,03,23,20.60
2014,07,13,03,24,20.60
2014,07,13,03,25,20.60
2014,07,13,03,26,20.60
2014,07,13,03,27,20.60
2014,07,13,03,28,20.60
2014,07,13,03,29,20.60
2014,07,13,03,30,20.60
2014,07,13,03,31,20.60
2014,07,13,03,32,20.60
2014,07,13,03,33,20.60
2014,07,13,03,34,20.60
2014,07,13,03,35,20.60
2014,07,13,03,36,20.50
2014,07,13,03,37,20.50
2014,07,13,03,38,20.60
2014,07,13,03,39,20.60
2014,07,13,03,40,20.60
2014,07,13,03,41,20.60
2014,07,13,03,42,20.60
2014,07,13,03,43,20.70
2014,07,13,03,44,20.70
2014,07,13,03,45,20.70
2014,07,13,03,46,20.70
2014,07,13,03,47,20.70
2014,07,13,03,48,20.80
2014,07,13,03,49,20.80
2014,07,13,03,50,20.80
2014,07,13,03,51,20.80
2014,07,13,03,52,20.80
2014,07,13,03,53,20.80
2014,07,13,03,54,20.90
2014,07,13,03,55,20.90
2014,07,13,03,56,20.90
2014,07,13,03,57,20.90
2014,07,13,03,58,21.00
2014,07,13,03,59,21.00
2014,07,13,04,00,21.00
2014,07,13,04,01,21.10
2014,07,13,04,02,21.10
2014,07,13,04,03,21.10
2014,07,13,04,04,21.20
2014,07,13,04,05,21.20
2014,07,13,04,06,21.20
2014,07,13,04,07,21.20
2014,07,13,04,08,21.30
2014,07,13,04,09,21.30
2014,07,13,04,10,21.30
2014,07,13,04,11,21.30
2014,07,13,04,12,21.40
2014,07,13,04,13,21.40
2014,07,13,04,14,21.40
2014,07,13,04,15,21.40
2014,07,13,04,16,21.40
2014,07,13,04,17,21.40
2014,07,13,04,18,21.40
2014,07,13,04,19,21.30
2014,07,13,04,20,21.30
2014,07,13,04,21,21.30
2014,07,13,04,22,21.30
2014,07,13,04,23,21.20
2014,07,13,04,24,21.20
2014,07,13,04,25,21.20
2014,07,13,04,26,21.10
2014,07,13,04,27,21.10
2014,07,13,04,28,21.10
2014,07,13,04,29,21.00
2014,07,13,04,30,21.00
2014,07,13,04,31,21.00
2014,07,13,04,32,21.00
2014,07,13,04,33,20.90
2014,07,13,04,34,20.90
2014,07,13,04,35,20.90
2014,07,13,04,36,20.90
2014,07,13,04,37,20.80
2014,07,13,04,38,20.80
2014,07,13,04,39,20.80
2014,07,13,04,40,20.80
2014,07,13,04,41,20.80
2014,07,13,04,42,20.70
2014,07,13,04,43,20.70
2014,07,13,04,44,20.70
2014,07,13,04,45,20.70
2014,07,13,04,46,20.60
2014,07,13,04,47,20.60
2014,07,13,04,48,20.60
2014,07,13,04,49,20.50
2014,07,13,04,50,20.50
2014,07,13,04,51,20.40
2014,07,13,04,52,20.40
2014,07,13,04,53,20.40
2014,07,13,04,54,20.40
2014,07,13,04,55,20.40
2014,07,13,04,56,20.40
2014,07,13,04,57,20.50
2014,07,13,04,58,20.50
2014,07,13,04,59,20.60
2014,07,13,05,00,20.60
2014,07,13,05,01,20.70
2014,07,13,05,02,20.70
2014,07,13,05,03,20.70
2014,07,13,05,04,20.80
2014,07,13,05,05,20.80
2014,07,13,05,06,20.80
2014,07,13,05,07,20.80
2014,07,13,05,08,20.90
2014,07,13,05,09,20.90
2014,07,13,05,10,21.00
2014,07,13,05,11,21.00
2014,07,13,05,12,21.10
2014,07,13,05,13,21.20
2014,07,13,05,14,21.20
2014,07,13,05,15,21.20
2014,07,13,05,16,21.20
2014,07,13,05,17,21.20
2014,07,13,05,18,21.20
2014,07,13,05,19,21.20
2014,07,13,05,20,21.20
2014,07,13,05,21,21.20
2014,07,13,05,22,21.20
2014,07,13,05,23,21.20
2014,07,13,05,24,21.20
2014,07,13,05,25,21.20
2014,07,13,05,26,21.10
2014,07,13,05,27,21.10
2014,07,13,05,28,21.10
2014,07,13,05,29,21.00
2014,07,13,05,30,21.00
2014,07,13,05,31,21.00
2014,07,13,05,32,20.90
2014,07,13,05,33,20.90
2014,07,13,05,34,20.90
2014,07,13,05,35,20.90
2014,07,13,05,36,20.90
2014,07,13,05,37,20.90
2014,07,13,05,38,21.00
2014,07,13,05,39,21.00
2014,07,13,05,40,21.00
2014,07,13,05,41,21.10
2014,07,13,05,42,21.10
2014,07,13,05,43,21.10
2014,07,13,05,44,21.10
2014,07,13,05,45,21.10
2014,07,13,05,46,21.10
2014,07,13,05,47,21.10
2014,07,13,05,48,21.10
2014,07,13,05,49,21.10
2014,07,13,05,50,21.10
2014,07,13,05,51,21.10
2014,07,13,05,52,21.20
2014,07,13,05,53,21.20
2014,07,13,05,54,21.20
2014,07,13,05,55,21.20
2014,07,13,05,56,21.20
2014,07,13,05,57,21.20
2014,07,13,05,58,21.30
2014,07,13,05,59,21.30
2014,07,13,06,00,21.30
2014,07,13,06,01,21.30
2014,07,13,06,02,21.40
2014,07,13,06,03,21.40
2014,07,13,06,04,21.40
2014,07,13,06,05,21.50
2014,07,13,06,06,21.50
2014,07,13,06,07,21.60
2014,07,13,06,08,21.60
2014,07,13,06,09,21.60
2014,07,13,06,10,21.70
2014,07,13,06,11,21.70
2014,07,13,06,12,21.80
2014,07,13,06,13,21.80
2014,07,13,06,14,21.80
2014,07,13,06,15,21.90
2014,07,13,06,16,21.90
2014,07,13,06,17,22.00
2014,07,13,06,18,22.00
2014,07,13,06,19,22.10
2014,07,13,06,20,22.10
2014,07,13,06,21,22.10
2014,07,13,06,22,22.20
2014,07,13,06,23,22.20
2014,07,13,06,24,22.20
2014,07,13,06,25,22.30
2014,07,13,06,26,22.30
2014,07,13,06,27,22.30
2014,07,13,06,28,22.30
2014,07,13,06,29,22.30
2014,07,13,06,30,22.40
2014,07,13,06,31,22.40
2014,07,13,06,32,22.40
2014,07,13,06,33,22.40
2014,07,13,06,34,22.50
2014,07,13,06,35,22.50
2014,07,13,06,36,22.50
2014,07,13,06,37,22.50
2014,07,13,06,38,22.60
2014,07,13,06,39,22.60
2014,07,13,06,40,22.50
2014,07,13,06,41,22.50
2014,07,13,06,42,22.50
2014,07,13,06,43,22.50
2014,07,13,06,44,22.60
2014,07,13,06,45,22.60
2014,07,13,06,46,22.60
2014,07,13,06,47,22.60
2014,07,13,06,48,22.60
2014,07,13,06,49,22.60
2014,07,13,06,50,22.60
2014,07,13,06,51,22.60
2014,07,13,06,52,22.60
2014,07,13,06,53,22.60
2014,07,13,06,54,22.60
2014,07,13,06,55,22.60
2014,07,13,06,56,22.60
2014,07,13,06,57,22.60
2014,07,13,06,58,22.60
2014,07,13,06,59,22.60
2014,07,13,07,00,22.60
2014,07,13,07,01,22.60
2014,07,13,07,02,22.60
2014,07,13,07,03,22.60
2014,07,13,07,04,22.70
2014,07,13,07,05,22.70
2014,07,13,07,06,22.70
2014,07,13,07,07,22.70
2014,07,13,07,08,22.70
2014,07,13,07,09,22.70
2014,07,13,07,10,22.70
2014,07,13,07,11,22.70
2014,07,13,07,12,22.70
2014,07,13,07,13,22.70
2014,07,13,07,14,22.70
2014,07,13,07,15,22.80
2014,07,13,07,16,22.80
2014,07,13,07,17,22.80
2014,07,13,07,18,22.80
2014,07,13,07,19,22.80
2014,07,13,07,20,22.80
2014,07,13,07,21,22.80
2014,07,13,07,22,22.90
2014,07,13,07,23,22.90
2014,07,13,07,24,22.90
2014,07,13,07,25,23.00
2014,07,13,07,26,23.00
2014,07,13,07,27,23.00
2014,07,13,07,28,23.10
2014,07,13,07,29,23.10
2014,07,13,07,30,23.10
2014,07,13,07,31,23.10
2014,07,13,07,32,23.10
2014,07,13,07,33,23.10
2014,07,13,07,34,23.10
2014,07,13,07,35,23.20
2014,07,13,07,36,23.20
2014,07,13,07,37,23.20
2014,07,13,07,38,23.20
2014,07,13,07,39,23.20
2014,07,13,07,40,23.30
2014,07,13,07,41,23.30
2014,07,13,07,42,23.30
2014,07,13,07,43,23.20
2014,07,13,07,44,23.10
2014,07,13,07,45,23.00
2014,07,13,07,46,22.90
2014,07,13,07,47,22.90
2014,07,13,07,48,22.80
2014,07,13,07,49,22.80
2014,07,13,07,50,22.70
2014,07,13,07,51,22.70
2014,07,13,07,52,22.60
2014,07,13,07,53,22.60
2014,07,13,07,54,22.60
2014,07,13,07,55,22.60
2014,07,13,07,56,22.60
2014,07,13,07,57,22.60
2014,07,13,07,58,22.60
2014,07,13,07,59,22.70
2014,07,13,08,00,22.70
2014,07,13,08,01,22.70
2014,07,13,08,02,22.70
2014,07,13,08,03,22.70
2014,07,13,08,04,22.70
2014,07,13,08,05,22.70
2014,07,13,08,06,22.70
2014,07,13,08,07,22.70
2014,07,13,08,08,22.70
2014,07,13,08,09,22.70
2014,07,13,08,10,22.70
2014,07,13,08,11,22.70
2014,07,13,08,12,22.70
2014,07,13,08,13,22.70
2014,07,13,08,14,22.70
2014,07,13,08,15,22.70
2014,07,13,08,16,22.80
2014,07,13,08,17,22.80
2014,07,13,08,18,22.80
2014,07,13,08,19,22.80
2014,07,13,08,20,22.90
2014,07,13,08,21,23.00
2014,07,13,08,22,23.00
2014,07,13,08,23,23.10
2014,07,13,08,24,23.20
2014,07,13,08,25,23.20
2014,07,13,08,26,23.20
2014,07,13,08,27,23.20
2014,07,13,08,28,23.20
2014,07,13,08,29,23.10
2014,07,13,08,30,23.00
2014,07,13,08,31,22.90
2014,07,13,08,32,22.70
2014,07,13,08,33,22.60
2014,07,13,08,34,22.50
2014,07,13,08,35,22.50
2014,07,13,08,36,22.40
2014,07,13,08,37,22.40
2014,07,13,08,38,22.30
2014,07,13,08,39,22.30
2014,07,13,08,40,22.30
2014,07,13,08,41,22.30
2014,07,13,08,42,22.30
2014,07,13,08,43,22.20
2014,07,13,08,44,22.20
2014,07,13,08,45,22.10
2014,07,13,08,46,22.10
2014,07,13,08,47,22.00
2014,07,13,08,48,22.00
2014,07,13,08,49,22.00
2014,07,13,08,50,21.90
2014,07,13,08,51,21.90
2014,07,13,08,52,21.90
2014,07,13,08,53,21.80
2014,07,13,08,54,21.80
2014,07,13,08,55,21.90
2014,07,13,08,56,21.90
2014,07,13,08,57,21.90
2014,07,13,08,58,22.00
2014,07,13,08,59,22.00
2014,07,13,09,00,22.10
2014,07,13,09,01,22.00
2014,07,13,09,02,22.00
2014,07,13,09,03,22.00
2014,07,13,09,04,22.00
2014,07,13,09,05,22.00
2014,07,13,09,06,21.90
2014,07,13,09,07,21.90
2014,07,13,09,08,21.90
2014,07,13,09,09,21.90
2014,07,13,09,10,21.90
2014,07,13,09,11,21.80
2014,07,13,09,12,21.80
2014,07,13,09,13,21.80
2014,07,13,09,14,21.80
2014,07,13,09,15,21.80
2014,07,13,09,16,21.80
2014,07,13,09,17,21.80
2014,07,13,09,18,21.80
2014,07,13,09,19,21.80
2014,07,13,09,20,21.80
2014,07,13,09,21,21.80
2014,07,13,09,22,21.80
2014,07,13,09,23,21.80
2014,07,13,09,24,21.80
2014,07,13,09,25,21.80
2014,07,13,09,26,21.90
2014,07,13,09,27,21.90
2014,07,13,09,28,21.80
2014,07,13,09,29,21.80
2014,07,13,09,30,21.80
2014,07,13,09,31,21.80
2014,07,13,09,32,21.90
2014,07,13,09,33,21.90
2014,07,13,09,34,21.90
2014,07,13,09,35,21.80
2014,07,13,09,36,21.80
2014,07,13,09,37,21.80
2014,07,13,09,38,21.80
2014,07,13,09,39,21.80
2014,07,13,09,40,21.80
2014,07,13,09,41,21.80
2014,07,13,09,42,21.70
2014,07,13,09,43,21.70
2014,07,13,09,44,21.70
2014,07,13,09,45,21.70
2014,07,13,09,46,21.70
2014,07,13,09,47,21.80
2014,07,13,09,48,21.80
2014,07,13,09,49,21.70
2014,07,13,09,50,21.70
2014,07,13,09,51,21.70
2014,07,13,09,52,21.70
2014,07,13,09,53,21.70
2014,07,13,09,54,21.70
2014,07,13,09,55,21.70
2014,07,13,09,56,21.70
2014,07,13,09,57,21.70
2014,07,13,09,58,21.70
2014,07,13,09,59,21.70
2014,07,13,10,00,21.80
2014,07,13,10,01,21.80
2014,07,13,10,02,21.80
2014,07,13,10,03,21.80
2014,07,13,10,04,21.80
2014,07,13,10,05,21.80
2014,07,13,10,06,21.80
2014,07,13,10,07,21.80
2014,07,13,10,08,21.80
2014,07,13,10,09,21.80
2014,07,13,10,10,21.80
2014,07,13,10,11,21.80
2014,07,13,10,12,21.80
2014,07,13,10,13,21.80
2014,07,13,10,14,21.80
2014,07,13,10,15,21.80
2014,07,13,10,16,21.80
2014,07,13,10,17,21.80
2014,07,13,10,18,21.80
2014,07,13,10,19,21.80
2014,07,13,10,20,21.80
2014,07,13,10,21,21.80
2014,07,13,10,22,21.80
2014,07,13,10,23,21.80
2014,07,13,10,24,21.90
2014,07,13,10,25,21.90
2014,07,13,10,26,21.90
2014,07,13,10,27,21.90
2014,07,13,10,28,21.90
2014,07,13,10,29,21.80
2014,07,13,10,30,21.80
2014,07,13,10,31,21.80
2014,07,13,10,32,21.80
2014,07,13,10,33,21.80
2014,07,13,10,34,21.80
2014,07,13,10,35,21.70
2014,07,13,10,36,21.60
2014,07,13,10,37,21.60
2014,07,13,10,38,21.60
2014,07,13,10,39,21.70
2014,07,13,10,40,21.70
2014,07,13,10,41,21.70
2014,07,13,10,42,21.70
2014,07,13,10,43,21.70
2014,07,13,10,44,21.60
2014,07,13,10,45,21.60
2014,07,13,10,46,21.60
2014,07,13,10,47,21.60
2014,07,13,10,48,21.70
2014,07,13,10,49,21.80
2014,07,13,10,50,21.80
2014,07,13,10,51,21.80
2014,07,13,10,52,21.80
2014,07,13,10,53,21.80
2014,07,13,10,54,21.80
2014,07,13,10,55,21.70
2014,07,13,10,56,21.70
2014,07,13,10,57,21.80
2014,07,13,10,58,21.80
2014,07,13,10,59,21.90
2014,07,13,11,00,22.00
2014,07,13,11,01,22.10
2014,07,13,11,02,22.10
2014,07,13,11,03,22.00
2014,07,13,11,04,22.00
2014,07,13,11,05,21.90
2014,07,13,11,06,22.10
2014,07,13,11,07,22.10
2014,07,13,11,08,22.20
2014,07,13,11,09,22.20
2014,07,13,11,10,22.20
2014,07,13,11,11,22.20
2014,07,13,11,12,22.30
2014,07,13,11,13,22.30
2014,07,13,11,14,22.30
2014,07,13,11,15,22.30
2014,07,13,11,16,22.30
2014,07,13,11,17,22.40
2014,07,13,11,18,22.40
2014,07,13,11,19,22.60
2014,07,13,11,20,22.70
2014,07,13,11,21,22.80
2014,07,13,11,22,22.80
2014,07,13,11,23,22.90
2014,07,13,11,24,22.90
2014,07,13,11,25,23.00
2014,07,13,11,26,23.10
2014,07,13,11,27,23.10
2014,07,13,11,28,23.10
2014,07,13,11,29,23.10
2014,07,13,11,30,23.00
2014,07,13,11,31,22.90
2014,07,13,11,32,22.90
2014,07,13,11,33,22.90
2014,07,13,11,34,22.90
2014,07,13,11,35,23.00
2014,07,13,11,36,23.10
2014,07,13,11,37,23.10
2014,07,13,11,38,23.10
2014,07,13,11,39,23.00
2014,07,13,11,40,23.00
2014,07,13,11,41,23.10
2014,07,13,11,42,23.00
2014,07,13,11,43,22.90
2014,07,13,11,44,22.90
2014,07,13,11,45,22.80
2014,07,13,11,46,22.80
2014,07,13,11,47,22.80
2014,07,13,11,48,22.70
2014,07,13,11,49,22.50
2014,07,13,11,50,22.50
2014,07,13,11,51,22.40
2014,07,13,11,52,22.30
2014,07,13,11,53,22.20
2014,07,13,11,54,22.30
2014,07,13,11,55,22.30
2014,07,13,11,56,22.30
2014,07,13,11,57,22.20
2014,07,13,11,58,22.30
2014,07,13,11,59,22.30
2014,07,13,12,00,22.40
2014,07,13,12,01,22.50
2014,07,13,12,02,22.70
2014,07,13,12,03,22.90
2014,07,13,12,04,23.10
2014,07,13,12,05,23.30
2014,07,13,12,06,23.40
2014,07,13,12,07,23.50
2014,07,13,12,08,23.60
2014,07,13,12,09,23.70
2014,07,13,12,10,23.70
2014,07,13,12,11,23.70
2014,07,13,12,12,23.70
2014,07,13,12,13,23.60
2014,07,13,12,14,23.60
2014,07,13,12,15,23.50
2014,07,13,12,16,23.40
2014,07,13,12,17,23.40
2014,07,13,12,18,23.40
2014,07,13,12,19,23.40
2014,07,13,12,20,23.40
2014,07,13,12,21,23.40
2014,07,13,12,22,23.50
2014,07,13,12,23,23.50
2014,07,13,12,24,23.70
2014,07,13,12,25,23.80
2014,07,13,12,26,23.90
2014,07,13,12,27,24.00
2014,07,13,12,28,24.10
2014,07,13,12,29,24.30
2014,07,13,12,30,24.40
2014,07,13,12,31,24.50
2014,07,13,12,32,24.60
2014,07,13,12,33,24.70
2014,07,13,12,34,24.70
2014,07,13,12,35,24.70
2014,07,13,12,36,24.70
2014,07,13,12,37,24.70
2014,07,13,12,38,24.70
2014,07,13,12,39,24.70
2014,07,13,12,40,24.70
2014,07,13,12,41,24.70
2014,07,13,12,42,24.70
2014,07,13,12,43,24.80
2014,07,13,12,44,24.80
2014,07,13,12,45,24.90
2014,07,13,12,46,24.90
2014,07,13,12,47,24.90
2014,07,13,12,48,25.00
2014,07,13,12,49,25.00
2014,07,13,12,50,25.10
2014,07,13,12,51,25.00
2014,07,13,12,52,25.00
2014,07,13,12,53,24.90
2014,07,13,12,54,25.00
2014,07,13,12,55,25.00
2014,07,13,12,56,25.00
2014,07,13,12,57,24.90
2014,07,13,12,58,24.90
2014,07,13,12,59,24.80
2014,07,13,13,00,24.80
2014,07,13,13,01,24.70
2014,07,13,13,02,24.70
2014,07,13,13,03,24.70
2014,07,13,13,04,24.70
2014,07,13,13,05,24.60
2014,07,13,13,06,24.60
2014,07,13,13,07,24.50
2014,07,13,13,08,24.50
2014,07,13,13,09,24.60
2014,07,13,13,10,24.60
2014,07,13,13,11,24.70
2014,07,13,13,12,24.80
2014,07,13,13,13,24.90
2014,07,13,13,14,25.10
2014,07,13,13,15,25.20
2014,07,13,13,16,25.20
2014,07,13,13,17,25.20
2014,07,13,13,18,25.30
2014,07,13,13,19,25.40
2014,07,13,13,20,25.40
2014,07,13,13,21,25.40
2014,07,13,13,22,25.40
2014,07,13,13,23,25.40
2014,07,13,13,24,25.40
2014,07,13,13,25,25.40
2014,07,13,13,26,25.30
2014,07,13,13,27,25.30
2014,07,13,13,28,25.30
2014,07,13,13,29,25.20
2014,07,13,13,30,25.20
2014,07,13,13,31,25.10
2014,07,13,13,32,25.10
2014,07,13,13,33,25.10
2014,07,13,13,34,25.10
2014,07,13,13,35,25.10
2014,07,13,13,36,25.10
2014,07,13,13,37,25.10
2014,07,13,13,38,25.10
2014,07,13,13,39,25.10
2014,07,13,13,40,25.10
2014,07,13,13,41,25.10
2014,07,13,13,42,25.10
2014,07,13,13,43,25.20
2014,07,13,13,44,25.20
2014,07,13,13,45,25.30
2014,07,13,13,46,25.30
2014,07,13,13,47,25.40
2014,07,13,13,48,25.40
2014,07,13,13,49,25.40
2014,07,13,13,50,25.40
2014,07,13,13,51,25.30
2014,07,13,13,52,25.30
2014,07,13,13,53,25.30
2014,07,13,13,54,25.30
2014,07,13,13,55,25.30
2014,07,13,13,56,25.30
2014,07,13,13,57,25.30
2014,07,13,13,58,25.40
2014,07,13,13,59,25.50
2014,07,13,14,00,25.60
2014,07,13,14,01,25.70
2014,07,13,14,02,25.80
2014,07,13,14,03,25.90
2014,07,13,14,04,26.00
2014,07,13,14,05,26.10
2014,07,13,14,06,26.10
2014,07,13,14,07,26.10
2014,07,13,14,08,26.10
2014,07,13,14,09,26.10
2014,07,13,14,10,26.10
2014,07,13,14,11,26.20
2014,07,13,14,12,26.20
2014,07,13,14,13,26.30
2014,07,13,14,14,26.30
2014,07,13,14,15,26.40
2014,07,13,14,16,26.40
2014,07,13,14,17,26.40
2014,07,13,14,18,26.40
2014,07,13,14,19,26.50
2014,07,13,14,20,26.50
2014,07,13,14,21,26.50
2014,07,13,14,22,26.40
2014,07,13,14,23,26.40
2014,07,13,14,24,26.40
2014,07,13,14,25,26.40
2014,07,13,14,26,26.50
2014,07,13,14,27,26.50
2014,07,13,14,28,26.60
2014,07,13,14,29,26.70
2014,07,13,14,30,26.70
2014,07,13,14,31,26.80
2014,07,13,14,32,26.80
2014,07,13,14,33,26.80
2014,07,13,14,34,26.60
2014,07,13,14,35,26.60
2014,07,13,14,36,26.50
2014,07,13,14,37,26.40
2014,07,13,14,38,26.30
2014,07,13,14,39,26.40
2014,07,13,14,40,26.40
2014,07,13,14,41,26.40
2014,07,13,14,42,26.40
2014,07,13,14,43,26.50
2014,07,13,14,44,26.50
2014,07,13,14,45,26.50
2014,07,13,14,46,26.70
2014,07,13,14,47,26.80
2014,07,13,14,48,26.90
2014,07,13,14,49,26.90
2014,07,13,14,50,27.00
2014,07,13,14,51,27.00
2014,07,13,14,52,27.10
2014,07,13,14,53,27.10
2014,07,13,14,54,27.10
2014,07,13,14,55,27.10
2014,07,13,14,56,27.10
2014,07,13,14,57,27.10
2014,07,13,14,58,27.10
2014,07,13,14,59,27.00
2014,07,13,15,00,26.90
2014,07,13,15,01,26.90
2014,07,13,15,02,26.90
2014,07,13,15,03,26.90
2014,07,13,15,04,27.00
2014,07,13,15,05,27.00
2014,07,13,15,06,27.00
2014,07,13,15,07,27.00
2014,07,13,15,08,27.00
2014,07,13,15,09,27.00
2014,07,13,15,10,27.10
2014,07,13,15,11,27.20
2014,07,13,15,12,27.20
2014,07,13,15,13,27.20
2014,07,13,15,14,27.20
2014,07,13,15,15,27.20
2014,07,13,15,16,27.10
2014,07,13,15,17,27.10
2014,07,13,15,18,27.00
2014,07,13,15,19,27.00
2014,07,13,15,20,27.00
2014,07,13,15,21,27.10
2014,07,13,15,22,27.20
2014,07,13,15,23,27.20
2014,07,13,15,24,27.20
2014,07,13,15,25,27.30
2014,07,13,15,26,27.40
2014,07,13,15,27,27.40
2014,07,13,15,28,27.30
2014,07,13,15,29,27.40
2014,07,13,15,30,27.40
2014,07,13,15,31,27.40
2014,07,13,15,32,27.40
2014,07,13,15,33,27.40
2014,07,13,15,34,27.30
2014,07,13,15,35,27.30
2014,07,13,15,36,27.30
2014,07,13,15,37,27.30
2014,07,13,15,38,27.30
2014,07,13,15,39,27.30
2014,07,13,15,40,27.30
2014,07,13,15,41,27.20
2014,07,13,15,42,27.20
2014,07,13,15,43,27.30
2014,07,13,15,44,27.30
2014,07,13,15,45,27.40
2014,07,13,15,46,27.40
2014,07,13,15,47,27.40
2014,07,13,15,48,27.50
2014,07,13,15,49,27.50
2014,07,13,15,50,27.50
2014,07,13,15,51,27.50
2014,07,13,15,52,27.50
2014,07,13,15,53,27.50
2014,07,13,15,54,27.50
2014,07,13,15,55,27.50
2014,07,13,15,56,27.50
2014,07,13,15,57,27.50
2014,07,13,15,58,27.50
2014,07,13,15,59,27.50
2014,07,13,16,00,27.60
2014,07,13,16,01,27.60
2014,07,13,16,02,27.60
2014,07,13,16,03,27.60
2014,07,13,16,04,27.60
2014,07,13,16,05,27.60
2014,07,13,16,06,27.60
2014,07,13,16,07,27.70
2014,07,13,16,08,27.70
2014,07,13,16,09,27.80
2014,07,13,16,10,27.90
2014,07,13,16,11,28.00
2014,07,13,16,12,28.10
2014,07,13,16,13,28.10
2014,07,13,16,14,28.10
2014,07,13,16,15,28.20
2014,07,13,16,16,28.20
2014,07,13,16,17,28.30
2014,07,13,16,18,28.40
2014,07,13,16,19,28.50
2014,07,13,16,20,28.60
2014,07,13,16,21,28.60
2014,07,13,16,22,28.60
2014,07,13,16,23,28.60
2014,07,13,16,24,28.70
2014,07,13,16,25,28.70
2014,07,13,16,26,28.80
2014,07,13,16,27,28.80
2014,07,13,16,28,28.80
2014,07,13,16,29,28.80
2014,07,13,16,30,28.70
2014,07,13,16,31,28.70
2014,07,13,16,32,28.70
2014,07,13,16,33,28.70
2014,07,13,16,34,28.70
2014,07,13,16,35,28.70
2014,07,13,16,36,28.70
2014,07,13,16,37,28.70
2014,07,13,16,38,28.70
2014,07,13,16,39,28.70
2014,07,13,16,40,28.80
2014,07,13,16,41,28.80
2014,07,13,16,42,28.80
2014,07,13,16,43,28.80
2014,07,13,16,44,28.80
2014,07,13,16,45,28.90
2014,07,13,16,46,29.00
2014,07,13,16,47,29.10
2014,07,13,16,48,29.10
2014,07,13,16,49,29.10
2014,07,13,16,50,29.20
2014,07,13,16,51,29.20
2014,07,13,16,52,29.20
2014,07,13,16,53,29.20
2014,07,13,16,54,29.20
2014,07,13,16,55,29.10
2014,07,13,16,56,29.10
2014,07,13,16,57,29.10
2014,07,13,16,58,29.10
2014,07,13,16,59,29.10
2014,07,13,17,00,29.10
2014,07,13,17,01,29.10
2014,07,13,17,02,29.20
2014,07,13,17,03,29.30
2014,07,13,17,04,29.40
2014,07,13,17,05,29.40
2014,07,13,17,06,29.40
2014,07,13,17,07,29.50
2014,07,13,17,08,29.50
2014,07,13,17,09,29.50
2014,07,13,17,10,29.40
2014,07,13,17,11,29.40
2014,07,13,17,12,29.40
2014,07,13,17,13,29.40
2014,07,13,17,14,29.40
2014,07,13,17,15,29.50
2014,07,13,17,16,29.50
2014,07,13,17,17,29.60
2014,07,13,17,18,29.60
2014,07,13,17,19,29.60